PROFILE

 METAR AND TAF INFORMATION
ADDS - METARS form results

(1407 UTC 22 January 2019)
http://aviationweather.gov/metar/data/
 
BGSF 221350Z AUTO 06006KT 9999NDV NCD M32/M35 Q1013
TAF BGSF 221057Z 2212/2318 06008KT 9999 FEW200 

 AIRPORT MAP

 RUNWAY INFORMATION
Runway 09 Runway length 9219 ft Runway width 197 ft
Runway elevation 100 ft Runway displaced threshold 0 ft Runway heading 62
Runway 27 Runway length 9219 ft Runway width 197 ft
Runway elevation 165 ft Runway displaced threshold 0 ft Runway heading 242

 AIRPORT FREQUENCIES
Type A/D Name APP/DEP Frequency 126.2 MHZ
Type RDO Name RDO Frequency 121.3 MHZ
Type TWR Name TWR Frequency 118.3 MHZ

 AIRPORT NEAR NAVIGATION AIDS
Type NDB Name Sondre Stromfjord Frequency 382 KHZ